Hourly Data Report for February 24, 2021

KUGAARUK CLIMATE
NUNAVUT
Current Station Operator: ECCC - MSC

68°32'15.060" N
89°47'47.020" W
15.80 m
2303094
71407
NBB

Download Data

Hourly Data (February 2021)
Hourly Data Report for February 24, 2021
TIME
LST
Temp Definition
°C
Dew Point Definition
°C
Rel Hum Definition
%
Precip. Amount Definition
mm

Wind Dir Definition
10's deg

Wind Spd Definition
km/h
Visibility Definition
km
Stn Press Definition
kPa
Hmdx Definition


Wind Chill Definition


Weather Definition


00:00 -33.9 -37.3 71 0.0 26 37   99.78   -52 LegendNANA
01:00 -34.9 -38.3 71 0.0 25 36   99.87   -53 LegendNANA
02:00 -35.5 -39.0 70 0.0 24 40   99.89   -55 LegendNANA
03:00 -36.9 -40.4 70 0.0 22 47   99.93   -58 LegendNANA
04:00 -37.6 -41.2 69 0.0 24 51   99.95   -60 LegendNANA
05:00 -38.4 -42.0 69 0.0 24 55   99.92   -61 LegendNANA
06:00 -38.5 -42.1 69 0.0 23 55   99.97   -61 LegendNANA
07:00 -38.7 -42.4 68 0.0 24 52   99.97   -61 LegendNANA
08:00 -38.6 -42.3 68 0.0 24 52   100.03   -61 LegendNANA
09:00 -38.6 -42.4 68 0.2 24 56   99.97   -62 LegendNANA
10:00 -38.1 -42.0 67 0.0 24 56   100.03   -61 LegendNANA
11:00 -37.7 -41.5 68 0.0 24 50   100.12   -60 LegendNANA
12:00 -37.5 -41.3 68 0.0 24 52   100.10   -60 LegendNANA
13:00 -37.1 -40.9 68 0.0 24 45   100.21   -58 LegendNANA
14:00 -37.8 -41.6 68 0.0 24 45   100.19   -59 LegendNANA
15:00 -37.5 -41.2 69 0.0 24 44   100.20   -58 LegendNANA
16:00 -37.3 -40.9 69 0.0 24 42   100.26   -58 LegendNANA
17:00 -37.9 -41.6 68 0.0 24 38   100.32   -58 LegendNANA
18:00 -37.7 -41.4 68 0.0 24 37   100.32   -57 LegendNANA
19:00 -37.8 -41.5 68 0.0 24 33   100.32   -56 LegendNANA
20:00 -38.1 -41.9 67 0.0 24 30   100.31   -56 LegendNANA
21:00 -37.8 -41.8 66 0.0 23 28   100.24   -55 LegendNANA
22:00 -37.9 -42.0 66 0.0 22 29   100.23   -56 LegendNANA
23:00 -38.1 -42.2 66 0.0 22 17   100.28   -52 LegendNANA

Notes on Data Quality.

Legend

  • E = Estimated
  • M = Missing
  • NA = Not Available*
  • [empty] = Indicates an unobserved value
Date modified: